Location: Newark
(35.5300°N, 14.3000°E)
Time: 00:25:45
(UTC+00:00)

ISS - Visible Passes

Search period start: 19 March 2019 00:00
Search period end: 29 March 2019 00:00
Orbit: 406 x 411 km, 51.6° (Epoch: 19 March)

Date Brightness Start Highest point End Pass type
(mag) Time Alt. Az. Time Alt. Az. Time Alt. Az.
19 Mar -1.7 17:57:18 10° SSE 17:58:41 12° SE 17:58:49 12° SE visible
20 Mar -4.0 18:40:35 10° SW 18:43:52 76° SE 18:43:57 75° ESE visible
21 Mar -3.1 17:49:53 10° SSW 17:52:54 34° SE 17:55:56 10° ENE visible
21 Mar -1.2 19:26:53 10° W 19:28:51 20° NW 19:28:51 20° NW visible
22 Mar -2.4 18:35:16 10° WSW 18:38:21 37° NW 18:40:42 15° NNE visible
23 Mar -3.6 17:43:58 10° SW 17:47:15 74° NW 17:50:33 10° NE visible
23 Mar -0.7 19:23:02 10° NW 19:24:18 12° NNW 19:25:07 11° N visible
24 Mar -1.1 18:30:41 10° WNW 18:32:59 17° NNW 18:35:16 10° NNE visible
25 Mar -1.8 17:38:50 10° W 17:41:43 28° NW 17:44:37 10° NNE visible
